Date String (YYYY-MM-DD hh:mm:ss) UTC,Instrument flags,Ambient pressure (hPa),Sample flow (lpm),Bypass flow (lpm),Sample temperature (°C),Ambient temperature (°C),ASC tube jacket temperature (°C),LED temperature (°C),Box temperature (°C),Sample RH (%),Span deviation,Mass concentration (μg/m³),Mass concentration (μg/m³),Mass concentration (μg/m³)
DateTimeUTC,F1_M11,P_M11,Q1_M11,Q2_M11,T1_M11,T2_M11,T3_M11,T4_M11,T5_M11,U1_M11,ZSPAN_M11,X0_M11,X2_M11,X1_M11
2022-06-07 05:00:00,,0823.7,5.01,0.00,29.9,28.8,00.0,38.7,31.8,20.8,0000.0,0006.57,0002.87,0001.30
2022-06-07 05:01:00,,0823.6,4.99,0.00,29.9,28.8,00.0,38.7,31.8,20.6,0000.0,0006.70,0002.93,0001.33
2022-06-07 05:02:00,,0823.6,4.99,0.00,29.9,28.8,00.0,38.7,31.7,20.3,0000.0,0007.52,0003.00,0001.34
2022-06-07 05:03:00,,0823.7,5.01,0.00,29.9,28.8,00.0,38.7,31.7,20.0,0000.0,0007.83,0003.01,0001.35
2022-06-07 05:04:00,,0823.6,5.00,0.00,29.9,28.8,00.0,38.7,31.7,19.9,0000.0,0007.72,0003.05,0001.36
2022-06-07 05:05:00,,0823.7,5.00,0.00,29.9,28.8,00.0,38.8,31.7,20.0,0000.0,0007.77,0003.09,0001.36
2022-06-07 05:06:00,,0823.7,5.00,0.00,29.9,28.8,00.0,38.8,31.7,19.7,0000.0,0007.83,0003.13,0001.37
2022-06-07 05:07:00,,0823.6,4.99,0.00,29.9,28.8,00.0,38.8,31.8,19.5,0000.0,0008.15,0003.17,0001.38
2022-06-07 05:08:00,,0823.7,4.99,0.00,29.9,28.9,00.0,38.8,31.8,19.5,0000.0,0008.39,0003.18,0001.38
2022-06-07 05:09:00,,0823.7,4.99,0.00,29.9,28.9,00.0,38.8,31.8,19.4,0000.0,0008.47,0003.22,0001.41
2022-06-07 05:10:00,,0823.6,5.01,0.00,29.9,28.9,00.0,38.8,31.8,19.4,0000.0,0008.51,0003.23,0001.41
2022-06-07 05:11:00,,0823.7,5.00,0.00,29.9,28.9,00.0,38.8,31.8,20.3,0000.0,0008.68,0003.18,0001.39
2022-06-07 05:12:00,,0823.7,4.99,0.00,30.0,28.9,00.0,38.8,31.9,20.7,0000.0,0008.76,0003.20,0001.39
2022-06-07 05:13:00,,0823.6,5.00,0.00,30.0,28.9,00.0,38.8,31.9,20.7,0000.0,0008.20,0003.19,0001.39
2022-06-07 05:14:00,,0823.7,4.99,0.00,30.0,28.9,00.0,38.8,31.9,20.8,0000.0,0008.41,0003.18,0001.39
2022-06-07 05:15:00,,0823.6,5.01,0.00,30.0,28.9,00.0,38.8,31.8,20.8,0000.0,0008.82,0003.17,0001.39
2022-06-07 05:16:00,,0823.6,5.00,0.00,30.0,28.9,00.0,38.8,31.9,20.4,0000.0,0008.74,0003.10,0001.36
2022-06-07 05:17:00,,0823.6,5.01,0.00,30.0,28.9,00.0,38.8,31.9,20.1,0000.0,0008.81,0003.05,0001.34
2022-06-07 05:18:00,,0823.7,4.99,0.00,30.0,28.9,00.0,38.9,31.9,19.9,0000.0,0008.89,0003.00,0001.32
2022-06-07 05:19:00,,0823.7,5.00,0.00,30.0,28.9,00.0,38.9,31.9,19.3,0000.0,0009.46,0002.96,0001.31
2022-06-07 05:20:00,,0823.7,5.01,0.00,30.0,28.9,00.0,38.9,31.9,19.1,0000.0,0009.45,0002.89,0001.27
2022-06-07 05:21:00,,0823.6,5.00,0.00,30.0,28.9,00.0,38.9,31.9,18.9,0000.0,0009.35,0002.84,0001.27
2022-06-07 05:22:00,,0823.6,5.00,0.00,30.0,28.9,00.0,38.9,31.9,18.9,0000.0,0009.21,0002.94,0001.27
2022-06-07 05:23:00,,0823.6,5.01,0.00,30.0,28.9,00.0,38.9,31.9,18.8,0000.0,0009.10,0002.88,0001.24
2022-06-07 05:24:00,,0823.6,5.00,0.00,30.0,28.9,00.0,38.9,31.9,18.8,0000.0,0009.22,0002.90,0001.23
2022-06-07 05:25:00,,0823.6,4.99,0.00,30.0,29.0,00.0,38.9,31.9,18.8,0000.0,0008.93,0002.91,0001.22
2022-06-07 05:26:00,,0823.6,4.99,0.00,30.0,29.0,00.0,38.9,31.9,18.8,0000.0,0008.53,0002.93,0001.21
2022-06-07 05:27:00,,0823.6,5.01,0.00,30.1,29.0,00.0,38.9,31.9,18.8,0000.0,0008.62,0003.03,0001.23
2022-06-07 05:28:00,,0823.7,5.01,0.00,30.1,29.0,00.0,38.9,31.9,18.8,0000.0,0008.48,0003.05,0001.23
2022-06-07 05:29:00,,0823.6,5.00,0.00,30.1,29.0,00.0,38.9,31.9,18.8,0000.0,0008.09,0003.05,0001.23
2022-06-07 05:30:00,,0823.6,5.00,0.00,30.1,29.0,00.0,38.9,31.9,18.9,0000.0,0007.51,0003.02,0001.24
2022-06-07 05:31:00,,0823.7,5.00,0.00,30.1,29.0,00.0,38.9,31.9,18.8,0000.0,0007.49,0003.03,0001.26
2022-06-07 05:32:00,,0823.7,5.01,0.00,30.1,29.0,00.0,38.9,31.9,18.7,0000.0,0007.44,0003.02,0001.27
2022-06-07 05:33:00,,0823.7,4.99,0.00,30.1,28.9,00.0,38.9,31.9,18.7,0000.0,0007.38,0002.96,0001.27
2022-06-07 05:34:00,,0823.7,5.00,0.00,30.1,28.9,00.0,38.9,31.9,19.1,0000.0,0007.31,0002.92,0001.28
2022-06-07 05:35:00,,0823.6,5.02,0.00,30.1,28.9,00.0,39.0,31.9,19.8,0000.0,0007.06,0002.87,0001.28
2022-06-07 05:36:00,,0823.6,4.99,0.00,30.1,28.9,00.0,39.0,31.9,19.9,0000.0,0006.69,0002.87,0001.29
2022-06-07 05:37:00,,0823.7,5.00,0.00,30.1,28.9,00.0,39.0,31.9,20.0,0000.0,0006.90,0002.94,0001.29
2022-06-07 05:38:00,,0823.7,5.01,0.00,30.1,28.9,00.0,39.0,31.9,19.8,0000.0,0006.92,0002.93,0001.30
2022-06-07 05:39:00,,0823.7,5.00,0.00,30.1,28.9,00.0,39.0,31.9,19.0,0000.0,0007.17,0002.99,0001.30
2022-06-07 05:40:00,,0823.7,4.99,0.00,30.1,28.9,00.0,39.0,31.9,19.0,0000.0,0007.18,0003.00,0001.31
2022-06-07 05:41:00,,0823.6,5.00,0.00,30.1,28.9,00.0,39.0,31.9,18.4,0000.0,0006.92,0003.04,0001.31
2022-06-07 05:42:00,,0823.6,5.00,0.00,30.1,28.9,00.0,39.0,31.9,18.4,0000.0,0007.04,0003.13,0001.32
2022-06-07 05:43:00,,0823.6,5.00,0.00,30.1,28.9,00.0,39.0,31.9,18.2,0000.0,0007.15,0003.13,0001.34
2022-06-07 05:44:00,,0823.6,5.00,0.00,30.1,28.9,00.0,39.0,32.0,18.0,0000.0,0007.04,0003.12,0001.34
2022-06-07 05:45:00,,0823.6,4.99,0.00,30.1,28.9,00.0,39.0,32.0,17.8,0000.0,0007.02,0003.11,0001.34
2022-06-07 05:46:00,,0823.6,5.00,0.00,30.1,29.0,00.0,39.0,32.0,17.8,0000.0,0007.12,0003.13,0001.33
2022-06-07 05:47:00,,0823.6,5.01,0.00,30.1,29.0,00.0,39.0,32.0,17.7,0000.0,0007.39,0003.16,0001.33
2022-06-07 05:48:00,,0823.6,4.99,0.00,30.1,29.0,00.0,39.0,32.0,17.7,0000.0,0007.74,0003.18,0001.33
2022-06-07 05:49:00,,0823.6,5.02,0.00,30.1,29.0,00.0,39.0,32.0,18.2,0000.0,0007.69,0003.16,0001.32
2022-06-07 05:50:00,,0823.6,4.99,0.00,30.1,29.0,00.0,39.0,32.0,18.3,0000.0,0007.47,0003.06,0001.31
2022-06-07 05:51:00,,0823.6,5.00,0.00,30.1,29.0,00.0,39.0,32.0,17.9,0000.0,0007.38,0002.99,0001.32
2022-06-07 05:52:00,,0823.6,5.01,0.00,30.1,29.0,00.0,39.0,32.0,17.6,0000.0,0007.61,0003.00,0001.32
2022-06-07 05:53:00,,0823.6,5.00,0.00,30.1,29.0,00.0,39.0,32.0,17.6,0000.0,0007.60,0002.92,0001.30
2022-06-07 05:54:00,,0823.6,5.00,0.00,30.1,29.0,00.0,39.0,32.0,17.7,0000.0,0007.67,0002.96,0001.27
2022-06-07 05:55:00,,0823.6,5.00,0.00,30.1,29.0,00.0,39.0,32.0,18.9,0000.0,0007.72,0002.97,0001.26
2022-06-07 05:56:00,,0823.6,4.99,0.00,30.1,29.0,00.0,39.0,32.0,19.2,0000.0,0007.72,0002.97,0001.27
2022-06-07 05:57:00,,0823.6,5.01,0.00,30.1,29.0,00.0,39.0,32.0,18.2,0000.0,0007.63,0002.91,0001.27
2022-06-07 05:58:00,,0823.7,5.00,0.00,30.2,29.0,00.0,39.0,32.0,17.8,0000.0,0007.36,0002.86,0001.28
2022-06-07 05:59:00,,0823.6,5.00,0.00,30.2,29.0,00.0,39.0,32.0,17.7,0000.0,0006.93,0002.79,0001.28
